| time (UTC) | temp C | wind direction | speed KPH | gust KPH | rain 1hr cm | rain 24hr cm | rain mn cm | humidity % | barometer mb |
| 20260504214554 | 12 | 239 | 16.1 | 38.6 | 0.00 | 0.00 | 0.00 | 45 | 996.2 |
| 20260504213100 | 13 | 317 | 11.3 | 25.7 | 0.00 | 0.00 | 0.00 | 45 | 996.0 |
| 20260504211553 | 13 | 270 | 12.9 | 35.4 | 0.00 | 0.00 | 0.00 | 45 | 995.6 |
| 20260504210052 | 13 | 340 | 11.3 | 33.8 | 0.00 | 0.00 | 0.00 | 45 | 995.3 |
| 20260504204552 | 13 | 298 | 6.4 | 38.6 | 0.00 | 0.00 | 0.00 | 47 | 995.3 |
| 20260504203051 | 14 | 305 | 9.7 | 25.7 | 0.00 | 0.00 | 0.00 | 49 | 995.1 |
| 20260504201650 | 13 | 273 | 11.3 | 35.4 | 0.00 | 0.00 | 0.00 | 49 | 994.9 |
| 20260504200050 | 13 | 329 | 11.3 | 24.1 | 0.00 | 0.00 | 0.00 | 48 | 994.8 |
| 20260504194554 | 13 | 243 | 14.5 | 40.2 | 0.00 | 0.00 | 0.00 | 50 | 994.5 |
| 20260504193050 | 14 | 228 | 8.0 | 30.6 | 0.00 | 0.00 | 0.00 | 50 | 994.3 |
| 20260504191609 | 15 | 246 | 9.7 | 30.6 | 0.00 | 0.00 | 0.00 | 50 | 994.2 |
| 20260504190048 | 15 | 275 | 9.7 | 25.7 | 0.00 | 0.00 | 0.00 | 49 | 993.9 |
| 20260504184555 | 15 | 271 | 11.3 | 27.4 | 0.00 | 0.00 | 0.00 | 50 | 993.6 |
| 20260504183045 | 14 | 232 | 9.7 | 27.4 | 0.00 | 0.00 | 0.00 | 52 | 993.4 |
| 20260504181545 | 15 | 326 | 8.0 | 25.7 | 0.00 | 0.00 | 0.00 | 52 | 993.5 |
| 20260504180045 | 15 | 246 | 12.9 | 40.2 | 0.00 | 0.00 | 0.00 | 51 | 993.4 |
| 20260504174544 | 14 | 234 | 14.5 | 32.2 | 0.00 | 0.00 | 0.00 | 52 | 993.3 |
| 20260504173046 | 13 | 205 | 6.4 | 19.3 | 0.00 | 0.00 | 0.00 | 59 | 993.2 |
| 20260504171544 | 13 | 250 | 8.0 | 22.5 | 0.00 | 0.00 | 0.00 | 61 | 993.1 |
| 20260504081535 | 12 | 191 | 4.8 | 14.5 | 0.00 | 0.00 | 0.00 | 39 | 995.9 |
| 20260504050104 | 5 | 265 | 0.0 | 0.0 | 0.00 | 0.00 | 0.00 | 70 | 999.9 |
| 20260504044554 | 5 | 267 | 0.0 | 0.0 | 0.00 | 0.00 | 0.00 | 67 | 1000.1 |
| 20260504043050 | 5 | 234 | 0.0 | 1.6 | 0.00 | 0.00 | 0.00 | 66 | 1000.4 |
| 20260504041647 | 5 | 270 | 0.0 | 0.0 | 0.00 | 0.00 | 0.00 | 66 | 1000.6 |
| 20260504040044 | 6 | 270 | 0.0 | 0.0 | 0.00 | 0.00 | 0.00 | 66 | 1000.9 |
| 20260504034553 | 7 | 270 | 0.0 | 0.0 | 0.00 | 0.00 | 0.00 | 62 | 1001.2 |
| 20260504033051 | 7 | 270 | 0.0 | 0.0 | 0.00 | 0.00 | 0.00 | 58 | 1001.4 |
| 20260504031551 | 7 | 270 | 0.0 | 0.0 | 0.00 | 0.00 | 0.00 | 62 | 1001.5 |
| 20260504030047 | 7 | 270 | 0.0 | 0.0 | 0.00 | 0.00 | 0.00 | 60 | 1001.6 |
| 20260504024543 | 7 | 270 | 0.0 | 0.0 | 0.00 | 0.00 | 0.00 | 56 | 1001.7 |
| 20260504023037 | 7 | 270 | 0.0 | 0.0 | 0.00 | 0.00 | 0.00 | 58 | 1001.9 |
| 20260504021537 | 8 | 270 | 0.0 | 0.0 | 0.00 | 0.00 | 0.00 | 58 | 1002.0 |
| 20260504020037 | 8 | 270 | 0.0 | 0.0 | 0.00 | 0.00 | 0.00 | 57 | 1002.1 |
| 20260504014539 | 9 | 270 | 0.0 | 0.0 | 0.00 | 0.00 | 0.00 | 54 | 1002.1 |
| 20260504013039 | 10 | 270 | 0.0 | 1.6 | 0.00 | 0.00 | 0.00 | 46 | 1002.2 |
| 20260504011535 | 12 | 270 | 0.0 | 1.6 | 0.00 | 0.00 | 0.00 | 39 | 1002.3 |
| 20260504010036 | 13 | 270 | 0.0 | 0.0 | 0.00 | 0.00 | 0.00 | 32 | 1002.3 |
| 20260504004535 | 14 | 270 | 0.0 | 6.4 | 0.00 | 0.00 | 0.00 | 30 | 1002.5 |
| 20260504003041 | 15 | 271 | 3.2 | 11.3 | 0.00 | 0.00 | 0.00 | 28 | 1002.6 |
| 20260504001535 | 15 | 260 | 3.2 | 14.5 | 0.00 | 0.00 | 0.00 | 28 | 1002.6 |
| 20260504000033 | 15 | 279 | 3.2 | 14.5 | 0.00 | 0.00 | 0.00 | 28 | 1002.6 |
| 20260503234533 | 16 | 49 | 1.6 | 12.9 | 0.00 | 0.00 | 0.00 | 27 | 1002.5 |
| 20260503233037 | 16 | 263 | 4.8 | 19.3 | 0.00 | 0.00 | 0.00 | 27 | 1002.4 |
| 20260503231531 | 16 | 326 | 1.6 | 16.1 | 0.00 | 0.00 | 0.00 | 28 | 1002.4 |
| 20260503230031 | 16 | 320 | 4.8 | 14.5 | 0.00 | 0.00 | 0.00 | 30 | 1002.4 |
| 20260503224530 | 16 | 56 | 4.8 | 9.7 | 0.00 | 0.00 | 0.00 | 30 | 1002.4 |
| 20260503223030 | 16 | 261 | 8.0 | 19.3 | 0.00 | 0.00 | 0.00 | 29 | 1002.4 |
| 20260503221526 | 16 | 327 | 6.4 | 16.1 | 0.00 | 0.00 | 0.00 | 32 | 1002.2 |
| 20260503220126 | 16 | 231 | 8.0 | 25.7 | 0.00 | 0.00 | 0.00 | 38 | 1002.2 |